ROMMA est une association bénévole à but non lucratif. Votre soutien est indispensable : ADHERER à ROMMA ou FAIRE un DON

Engins - (38, Isère)

Vercors (906 m)   Longitude: 05° 37' E   Latitude: 45° 11' N Station partenaire n°139
 

Détail journalier du     <<     >>

Température Precipitation Humidité Vent Dir Rafale Dir. rafale Ensol.
Heure (°C) (mm) (%) (km/h) (km/h) (min)
01:00 12.60773SO13SSO0
02:00 12.10812OSO6OSO0
03:00 12.30813NO6SSO0
04:00 12.80764SSO11SSO0
05:00 12.20794SO13SSO0
06:00 13.00784SO15OSO0
07:00 11.90833SO8SSO0
08:00 11.80814SO13SSO0
09:00 12.40775SSO18SSE0
10:00 13.60783SSE10S0
11:00 14.90762SSE6SSE0
12:00 15.30751NE6ESE5
13:00 15.40762ENE6ENE25
14:00 13.80801NE5NE0
15:00 14.60782S8SSE0
16:00 14.10841S5S0
17:00 13.40871S5S0
18:00 12.60861ONO5SSE0
19:00 12.00872NO5NO0
20:00 11.60891NO3NO0
21:00 11.70882NO5NO0
22:00 12.00882O6OSO0
23:00 12.10882OSO10SSO0
minuit 11.70913O6OSO0

Graphique du 28-10-2019

 

Serveur OMMA